Regional Weather Roundup
Issued by NWS

Home | Current Version | Previous Version | Graphics & Text | Print | Product List | Glossary On
Versions: 1 2 3 4 5 6 7 8 9 10 11 12 13 14 15 16 17 18 19 20 21 22 23 24 25 26 27 28 29 30 31 32 33 34 35 36 37 38 39 40 41 42 43 44 45 46 47 48 49 50
000
ASUS43 KDTX 291010
RWRMI
MICHIGAN HOURLY REGIONAL WEATHER ROUNDUP
NATIONAL WEATHER SERVICE DETROIT/PONTIAC MI
500 AM EST THU JAN 29 2015

NOTE: "FAIR" INDICATES FEW OR NO CLOUDS BELOW 12,000 FEET WITH NO
SIGNIFICANT WEATHER AND/OR OBSTRUCTION TO VISIBILITY.

MIZ047>049-052>055-059>063-066>070-074>076-081>083-291100-
SOUTHEAST LOWER MICHIGAN

CITY           SKY/WX    TMP DP  RH WIND       PRES   REMARKS
ADRIAN         MIX PCPN  28  20  71 S12       29.89F
ALMA           MIX PCPN  27  22  82 SE8       29.84F
ANN ARBOR      MIX PCPN  28  19  69 S6        29.90F
BAD AXE        CLOUDY    26  17  67 S17G24    29.90F
DETROIT CITY   CLOUDY    29  17  61 SE13      29.95F
DETROIT        CLOUDY    28  18  66 SE9       29.93F
FLINT          CLOUDY    30  17  58 S13       29.89F
GROSSE ILE     CLOUDY    28  19  69 SE12      29.92F
HILLSDALE      CLOUDY    28  23  82 S10       29.82F
HOWELL         CLOUDY    26  20  77 SE14      29.87F

CITY           SKY/WX    TMP DP  RH WIND       PRES   REMARKS
JACKSON        CLOUDY    28  22  78 S13       29.84F
LAMBERTVILLE   CLOUDY    32  19  59 SE9       29.90F
LANSING        CLOUDY    29  22  75 SE13      29.83F
LAPEER         NOT AVBL
MASON          CLOUDY    28  21  75 SE10G18   29.84F
MONROE         CLOUDY    28  19  69 SE9       29.91F
MT. CLEMENS    CLOUDY    26  19  73 SE13      29.93F
PONTIAC        CLOUDY    27  16  63 SE13G23   29.89F
PORT HOPE        N/A     27  16  63 S16G28    29.87F
PORT HURON     CLOUDY    27  18  69 SE12G17   29.97F
TRI CITIES     LGT SNOW  28  21  75 S14       29.87F
YPSILANTI      FRZ RAIN  31  19  61 SE9       29.92F
$$
MIZ043>046-050>051-056>058-064>065-071>073-077>080-291100-
SOUTHWEST LOWER MICHIGAN

CITY           SKY/WX    TMP DP  RH WIND       PRES   REMARKS
BATTLE CREEK   MIX PCPN  32  23  69 S13       29.80F
BENTON HARBOR  CLOUDY    32  25  75 SE10      29.75F
BIG RAPIDS     CLOUDY    26  23  88 SE7       29.79F
COLDWATER      CLOUDY    31  23  72 S10G18    29.81F
HOLLAND        CLOUDY    32  26  78 SE8       29.78F
GRAND RAPIDS   CLOUDY    30  25  81 SE9       29.79F
KALAMAZOO      MOCLDY    32  24  72 S9        29.79F
MARSHALL       CLOUDY    30  23  75 S8        29.81F
MUSKEGON       CLOUDY    30  24  78 SE7       29.78F
$$
MIZ016>042-291100-
NORTHERN LOWER MICHIGAN

CITY           SKY/WX    TMP DP  RH WIND       PRES   REMARKS
ALPENA         CLOUDY    25  15  66 S13       29.86F
BEAVER ISLAND  CLOUDY    29  17  61 CALM      29.80F
BELLAIRE       CLOUDY    28  17  62 S12       29.83F
CADILLAC       LGT SNOW  22  20  91 SE6       29.77F
CHARLEVOIX     CLOUDY    28  15  57 S6        29.84F
FRANKFORT      LGT SNOW  26  25  96 SE5       29.80F
GAYLORD        FLURRIES  23  15  71 S9        29.79F
GRAYLING       FLURRIES  26  14  62 SE5       29.82F
HARBOR SPRINGS CLOUDY    28  13  53 CALM      29.82F
HOUGHTON LAKE  LGT SNOW  22  18  85 SE8       29.81F FOG
MANISTEE       CLOUDY    27  21  80 SE6       29.80F
OSCODA         CLOUDY    26  17  68 S8G16     29.88F
PELLSTON       CLOUDY    28  13  53 S5        29.82F
TRAVERSE CITY  SNOW      25  23  92 VRB3      29.81F VSB 1/2
$$
MIZ007>008-015-291100-
EASTERN UPPER MICHIGAN

CITY           SKY/WX    TMP DP  RH WIND       PRES   REMARKS
KINROSS        CLOUDY    27  19  74 SE7       29.82F
MACKINAC ISLAN CLOUDY    28  13  53 S6        29.80F
NEWBERRY       LGT SNOW  23  19  87 CALM      29.79F
S. S. MARIE    CLOUDY    27  15  61 SE6       29.82F
$$
MIZ004>006-011>014-085-291100-
CENTRAL UPPER MICHIGAN

CITY           SKY/WX    TMP DP  RH WIND       PRES   REMARKS
MANISTIQUE     CLOUDY    31  25  81 S8        29.78F
ESCANABA       CLOUDY    28  27  93 CALM      29.78F
MENOMINEE      CLOUDY    30  25  80 CALM      29.77F
SAWYER-GWINN   LGT SNOW  26  24  93 SW3       29.74F
$$
MIZ001>003-009>011-084-291100-
WESTERN UPPER MICHIGAN

CITY           SKY/WX    TMP DP  RH WIND       PRES   REMARKS
IRON MOUNTAIN  LGT SNOW  27  25  92 CALM      29.74F FOG
HOUGHTON       CLOUDY    29  27  92 NW13      29.74S FOG
COPPER HARBOR    N/A     30  27  88 W6        29.75S
IRONWOOD       CLOUDY    28  27  93 NW10G20   29.77S
$$

ABBREVIATIONS USED IN REMARKS
   TC - TEMPERATURE IN CELSIUS
  WCI - WIND CHILL INDEX
   HX - HEAT INDEX
  VSB - VISIBILITY




USA.gov is the U.S. government's official web portal to all federal, state and local government web resources and services.